Le nostre stazioni meteo in Italia

Pubblicità
Il mio iltempo24.it
Alghero, Italia (16520): Temperatura & dewpoint: 05.12.2018 02:00:00 - 11.12.2018 02:00:00 (CET)Alghero, Italia (16520): velocità del vento: 05.12.2018 02:00:00 - 11.12.2018 02:00:00 (CET)Alghero, Italia (16520): direzione del vento: 05.12.2018 02:00:00 - 11.12.2018 02:00:00 (CET)Alghero, Italia (16520): reduced air pressure: 05.12.2018 02:00:00 - 11.12.2018 02:00:00 (CET)Alghero, Italia (16520): visibility: 05.12.2018 02:00:00 - 11.12.2018 02:00:00 (CET)Alghero, Italia (16520): precipitazioni: 05.12.2018 02:00:00 - 11.12.2018 02:00:00 (CET)
Data & Tempo tt [°C] td [°C] ff [km/h] ff [kn] dd ppp [hPa] vv [km] rr [mm]
11.12.2018 02:00:00 13,0 6,0 15 8 ONO - 10 -
11.12.2018 01:00:00 13,2 5,9 11 6 ONO 1020,4 10 -
11.12.2018 00:00:00 13,0 6,0 9 5 NO - 10 -
10.12.2018 23:00:00 13,0 6,0 5 3 ONO - 10 -
10.12.2018 22:00:00 12,7 6,2 5 3 ONO 1021,5 10 0,0
10.12.2018 21:00:00 14,0 6,0 8 4 NO - 10 -
10.12.2018 20:00:00 13,0 6,0 9 5 NNO - 10 -
10.12.2018 19:00:00 13,4 6,4 13 7 NNO 1021,2 10 -
10.12.2018 18:00:00 13,0 7,0 16 9 NO - 10 -
10.12.2018 17:00:00 13,0 7,0 13 7 NNO - 10 -
10.12.2018 16:00:00 14,2 7,2 26 14 NNO 1021,3 10 0,0
10.12.2018 15:00:00 15,0 6,0 22 12 NNO - 10 -
10.12.2018 14:00:00 14,0 7,0 26 14 NNO - 10 -
10.12.2018 13:00:00 14,4 5,8 24 13 NNO 1021,8 10 -
10.12.2018 12:00:00 15,0 6,0 26 14 NO - 10 -
10.12.2018 11:00:00 15,0 6,0 22 12 NO - 10 -
10.12.2018 10:00:00 14,7 5,7 26 14 NO 1022,3 10 0,0
10.12.2018 09:00:00 14,0 7,0 21 11 NO - 10 -
10.12.2018 08:00:00 14,0 7,0 18 10 NO - 10 -
10.12.2018 07:00:00 14,3 6,6 22 12 NO 1021,4 10 -
10.12.2018 06:00:00 15,0 6,0 15 8 NO - 10 -
10.12.2018 05:00:00 15,0 7,0 18 10 NO - 10 -
10.12.2018 04:00:00 14,6 7,1 24 13 NNO 1021,4 10 0,0
10.12.2018 03:00:00 15,0 8,0 22 12 NO - 10 -
10.12.2018 02:00:00 15,0 7,0 26 14 NO - 10 -
10.12.2018 01:00:00 14,7 6,6 15 8 N 1021,7 10 -
10.12.2018 00:00:00 15,0 8,0 22 12 ONO - 10 -
09.12.2018 23:00:00 15,0 7,0 18 10 NO - 10 -
09.12.2018 22:00:00 15,5 8,1 18 10 NO 1021,7 10 0,0
09.12.2018 21:00:00 16,0 10,0 15 8 ONO - 10 -
09.12.2018 20:00:00 15,0 10,0 13 7 ONO - 10 -
09.12.2018 19:00:00 15,5 9,6 16 9 ONO 1021,5 10 -
09.12.2018 18:00:00 16,0 10,0 24 13 O - 10 -
09.12.2018 17:00:00 16,0 10,0 16 9 ONO - 10 -
09.12.2018 16:00:00 16,1 9,8 21 11 ONO 1021,6 10 0,0
09.12.2018 15:00:00 17,0 11,0 18 10 ONO - 10 -
09.12.2018 14:00:00 17,0 11,0 22 12 O - 10 -
09.12.2018 13:00:00 17,6 11,7 22 12 ONO 1021,9 10 -
09.12.2018 12:00:00 17,0 11,0 22 12 ONO - 10 -
09.12.2018 11:00:00 17,0 12,0 24 13 ONO - 10 -
09.12.2018 10:00:00 16,3 11,7 18 10 ONO 1023,2 10 0,0
09.12.2018 09:00:00 16,0 12,0 15 8 O - 10 -
09.12.2018 08:00:00 16,0 11,0 18 10 O - 10 -
09.12.2018 07:00:00 15,1 11,0 16 9 O 1022,3 10 -
09.12.2018 06:00:00 15,0 12,0 18 10 O - 10 -
09.12.2018 05:00:00 15,0 12,0 18 10 O - 10 -
09.12.2018 04:00:00 15,2 11,5 15 8 ONO 1022,9 15 0,0
09.12.2018 03:00:00 15,0 10,0 21 11 ONO - 10 -
09.12.2018 02:00:00 15,0 9,0 16 9 ONO - 10 -
09.12.2018 01:00:00 14,9 8,3 18 10 ONO 1023,4 10 -
09.12.2018 00:00:00 15,0 8,0 18 10 NO - 10 -
08.12.2018 23:00:00 15,0 8,0 11 6 NO - 10 -
08.12.2018 22:00:00 14,7 7,3 13 7 NO 1022,9 10 0,0
08.12.2018 21:00:00 15,0 7,0 13 7 NO - 10 -
08.12.2018 20:00:00 14,0 7,0 16 9 NNO - 10 -
08.12.2018 19:00:00 14,1 7,0 15 8 NNO 1022,4 10 -
08.12.2018 18:00:00 14,0 6,0 18 10 NNO - 10 -
08.12.2018 17:00:00 15,0 6,0 21 11 NO - 10 -
08.12.2018 16:00:00 14,6 6,5 18 10 NNO 1021,3 10 0,0
08.12.2018 15:00:00 15,0 6,0 24 13 NO - 10 -
08.12.2018 14:00:00 16,0 7,0 22 12 NO - 10 -
08.12.2018 13:00:00 15,8 6,0 24 13 NO 1021,7 10 -
08.12.2018 12:00:00 15,0 6,0 26 14 NNO - 10 -
08.12.2018 11:00:00 15,0 7,0 22 12 NO - 10 -
08.12.2018 10:00:00 14,8 5,8 24 13 NO 1021,9 10 0,0
08.12.2018 09:00:00 14,0 6,0 21 11 NO - 10 -
08.12.2018 08:00:00 14,0 5,0 22 12 ONO - 10 -
08.12.2018 07:00:00 14,3 4,0 22 12 NO 1020,9 10 -
08.12.2018 06:00:00 15,0 8,0 21 11 NO - 10 -
08.12.2018 05:00:00 16,0 11,0 21 11 ONO - 10 -
08.12.2018 04:00:00 15,8 10,7 18 10 O 1020,2 10 0,0
08.12.2018 03:00:00 15,0 12,0 16 9 O - 10 -
08.12.2018 02:00:00 15,0 12,0 21 11 O - 10 -
08.12.2018 01:00:00 15,6 11,9 18 10 O 1020,8 10 -
08.12.2018 00:00:00 15,0 11,0 15 8 O - 10 -
07.12.2018 23:00:00 16,0 12,0 15 8 O - 10 -
07.12.2018 22:00:00 15,4 11,8 15 8 SO 1022,2 10 0,0
07.12.2018 21:00:00 15,0 12,0 9 5 OSO - 10 -
07.12.2018 20:00:00 13,0 11,0 5 3 O - 10 -
07.12.2018 19:00:00 14,0 12,2 8 4 OSO 1022,5 10 -
07.12.2018 18:00:00 14,0 12,0 5 3 OSO - 10 -
07.12.2018 17:00:00 15,0 13,0 15 8 SSO - 10 -
07.12.2018 16:00:00 15,6 13,4 13 7 SSO 1022,7 10 0,0
07.12.2018 15:00:00 17,0 13,0 13 7 SSO - 10 -
07.12.2018 14:00:00 17,0 12,0 15 8 OSO - 10 -
07.12.2018 13:00:00 17,4 12,4 11 6 S 1023,4 10 -
07.12.2018 12:00:00 17,0 13,0 4 2 - - 10 -
07.12.2018 11:00:00 15,0 14,0 2 1 - - 10 -
07.12.2018 10:00:00 11,9 11,4 5 3 NE 1024,4 10 0,0
07.12.2018 09:00:00 8,0 8,0 5 3 N - 10 -
07.12.2018 08:00:00 6,0 5,0 2 1 - - 10 -
07.12.2018 07:00:00 6,6 6,1 5 3 NNE 1023,2 10 -
07.12.2018 06:00:00 - - - - - - - -
07.12.2018 05:00:00 8,0 8,0 5 3 NE - 5 -
07.12.2018 04:00:00 7,5 7,0 4 2 NNO 1022,7 5 0,0
07.12.2018 03:00:00 9,0 8,0 5 3 E - 5 -
07.12.2018 02:00:00 9,0 9,0 4 2 N - 5 -
07.12.2018 01:00:00 9,5 8,9 2 1 - 1022,4 5 -
07.12.2018 00:00:00 11,0 11,0 4 2 - - 10 -
06.12.2018 23:00:00 11,0 10,0 4 2 SSO - 10 -
06.12.2018 22:00:00 13,1 11,6 9 5 N 1021,7 10 0,0
06.12.2018 21:00:00 13,0 11,0 8 4 NNE - 10 -
06.12.2018 20:00:00 14,0 11,0 8 4 N - 10 -
06.12.2018 19:00:00 15,5 11,9 9 5 NNO 1020,4 10 -
06.12.2018 18:00:00 16,0 12,0 11 6 NO - 10 -
06.12.2018 17:00:00 16,0 12,0 15 8 NO - 10 -
06.12.2018 16:00:00 16,7 11,9 11 6 NO 1020,0 10 0,0
06.12.2018 15:00:00 17,0 11,0 18 10 NO - 10 -
06.12.2018 14:00:00 17,0 14,0 13 7 ONO - 10 -
06.12.2018 13:00:00 17,7 14,0 16 9 ONO 1021,2 10 -
06.12.2018 12:00:00 18,0 15,0 11 6 O - 10 -
06.12.2018 11:00:00 17,0 14,0 9 5 SO - 10 -
06.12.2018 10:00:00 16,6 14,0 11 6 OSO 1023,0 10 0,0
06.12.2018 09:00:00 16,0 14,0 13 7 SSO - 10 -
06.12.2018 08:00:00 15,0 14,0 8 4 SSO - 10 -
06.12.2018 07:00:00 14,3 13,5 4 2 - 1022,6 10 -
06.12.2018 06:00:00 15,0 14,0 9 5 SO - 10 -
06.12.2018 05:00:00 15,0 14,0 11 6 SSO - 10 -
06.12.2018 04:00:00 14,6 13,6 9 5 SSO 1023,7 10 0,0
06.12.2018 03:00:00 15,0 14,0 11 6 SSO - 10 -
06.12.2018 02:00:00 12,0 12,0 4 2 - - 10 -
06.12.2018 01:00:00 11,8 11,1 4 2 - 1024,8 10 -
06.12.2018 00:00:00 11,0 10,0 5 3 NE - 10 -
05.12.2018 23:00:00 11,0 11,0 2 1 SSE - 10 -
05.12.2018 22:00:00 10,9 10,1 4 2 - 1025,1 10 0,0
05.12.2018 21:00:00 11,0 10,0 5 3 SO - 10 -
05.12.2018 20:00:00 12,0 11,0 8 4 SO - 10 -
05.12.2018 19:00:00 13,1 11,3 8 4 OSO 1024,9 10 -
05.12.2018 18:00:00 13,0 11,0 5 3 OSO - 10 -
05.12.2018 17:00:00 15,0 11,0 9 5 SSO - 10 -
05.12.2018 16:00:00 16,4 11,9 16 9 SSO 1024,3 10 0,0
05.12.2018 15:00:00 17,0 13,0 18 10 SSO - 10 -
05.12.2018 14:00:00 17,0 13,0 18 10 SSO - 10 -
05.12.2018 13:00:00 16,8 13,1 18 10 SSO 1024,5 10 -
05.12.2018 12:00:00 17,0 13,0 16 9 S - 10 -
05.12.2018 11:00:00 16,0 14,0 13 7 S - 10 -
05.12.2018 10:00:00 12,9 12,3 2 1 - 1024,5 10 0,0
05.12.2018 09:00:00 9,0 8,0 4 2 NNE - 10 -
05.12.2018 08:00:00 8,0 8,0 8 4 NNE - 10 -
05.12.2018 07:00:00 7,0 6,4 4 2 - 1022,9 7 -
05.12.2018 06:00:00 - - - - - - - -
05.12.2018 05:00:00 9,0 9,0 5 3 NE - 5 -
05.12.2018 04:00:00 8,6 8,0 2 1 - 1022,0 10 0,0
05.12.2018 03:00:00 10,0 9,0 2 1 - - 10 -
05.12.2018 02:00:00 11,0 10,0 4 2 - - 10 -

tt = Temperatura
td = dewpoint
ff = velocità del vento
dd = direzione del vento
ppp = reduced air pressure
vv = visibility
rr = precipitazioni

Stazioni seguenti

WeatherPro
AMSI
MeteoEarth